UAL847 KIAH-SCEL

Flight info

Callsign UAL847
Flight time N/A
Altitude 31000
Route FLYZA5 MUSYL L207 IPSEV DCT VIKMO DCT MUVAP UL207 ENALO/N0490F330 UL207 LIXAS DCT ARNEL UM542 TAL DCT UGUGO DCT NIGNA/N0475F350 DCT SORTA UL780 SULNA UT315 TOY UV208 SIMOK SIMOK7B
Aircraft B772/H-SDE2E3FGHIJ5LORVWXY/LB1D1

Departure

Time 2026-05-04 23:22
Airport George Bush Intercontinental Airport (KIAH)

Arrival

Time N/A
Airport Comodoro Arturo Merino Benítez International Airport (SCEL)
Time Latitude Longitude Altitude Speed Heading
2026-05-04 22:55 29.98380 -95.33466 111 ft 0 kts 325°
2026-05-04 23:09 29.98364 -95.33453 108 ft 4 kts 325°
2026-05-04 23:09 29.98346 -95.33439 110 ft 4 kts 323°
2026-05-04 23:10 29.98326 -95.33419 109 ft 4 kts 312°
2026-05-04 23:10 29.98310 -95.33394 108 ft 4 kts 296°
2026-05-04 23:10 29.98301 -95.33365 107 ft 4 kts 275°
2026-05-04 23:10 29.98300 -95.33338 107 ft 4 kts 270°
2026-05-04 23:11 29.98300 -95.33319 107 ft 0 kts 270°
2026-05-04 23:13 29.98300 -95.33324 107 ft 3 kts 270°
2026-05-04 23:14 29.98300 -95.33371 108 ft 9 kts 270°
2026-05-04 23:14 29.98300 -95.33468 109 ft 14 kts 270°
2026-05-04 23:14 29.98304 -95.33583 110 ft 14 kts 274°
2026-05-04 23:14 29.98312 -95.33698 109 ft 14 kts 274°
2026-05-04 23:15 29.98317 -95.33850 109 ft 14 kts 269°
2026-05-04 23:15 29.98316 -95.33928 110 ft 14 kts 269°
2026-05-04 23:15 29.98341 -95.34035 108 ft 14 kts 302°
2026-05-04 23:15 29.98375 -95.34142 110 ft 14 kts 275°
2026-05-04 23:16 29.98376 -95.34254 110 ft 14 kts 270°
2026-05-04 23:16 29.98377 -95.34372 112 ft 14 kts 270°
2026-05-04 23:16 29.98377 -95.34488 111 ft 14 kts 270°
2026-05-04 23:16 29.98378 -95.34604 111 ft 14 kts 270°
2026-05-04 23:17 29.98378 -95.34719 111 ft 14 kts 270°
2026-05-04 23:17 29.98379 -95.34835 111 ft 14 kts 270°
2026-05-04 23:17 29.98379 -95.34951 111 ft 14 kts 270°
2026-05-04 23:17 29.98380 -95.35066 111 ft 14 kts 270°
2026-05-04 23:18 29.98385 -95.35181 108 ft 14 kts 290°
2026-05-04 23:18 29.98463 -95.35251 108 ft 14 kts 332°
2026-05-04 23:18 29.98551 -95.35306 110 ft 14 kts 332°
2026-05-04 23:18 29.98640 -95.35360 110 ft 14 kts 332°
2026-05-04 23:19 29.98733 -95.35417 110 ft 16 kts 332°
2026-05-04 23:19 29.98836 -95.35480 110 ft 17 kts 332°
2026-05-04 23:19 29.98874 -95.35566 110 ft 13 kts 252°
2026-05-04 23:19 29.98836 -95.35661 109 ft 13 kts 243°
2026-05-04 23:20 29.98803 -95.35732 111 ft 0 kts 242°
2026-05-04 23:20 29.98802 -95.35734 112 ft 1 kts 242°
2026-05-04 23:20 29.98794 -95.35751 112 ft 4 kts 242°
2026-05-04 23:20 29.98773 -95.35774 109 ft 5 kts 199°
2026-05-04 23:21 29.98736 -95.35757 111 ft 9 kts 150°
2026-05-04 23:21 29.98566 -95.35650 108 ft 58 kts 152°
2026-05-04 23:21 29.97991 -95.35299 109 ft 126 kts 152°
2026-05-04 23:21 29.97045 -95.34713 149 ft 178 kts 152°
2026-05-04 23:22 29.95907 -95.34027 676 ft 193 kts 151°
2026-05-04 23:22 29.94840 -95.33198 1556 ft 185 kts 130°
2026-05-04 23:22 29.94135 -95.31898 2024 ft 199 kts 126°
2026-05-04 23:22 29.93304 -95.30531 2194 ft 218 kts 129°
2026-05-04 23:23 29.92352 -95.29110 2507 ft 229 kts 130°
2026-05-04 23:23 29.91375 -95.27671 2998 ft 231 kts 131°
2026-05-04 23:23 29.90384 -95.26194 3465 ft 238 kts 130°
2026-05-04 23:23 29.89345 -95.24637 3716 ft 253 kts 130°
2026-05-04 23:24 29.88269 -95.22994 4122 ft 262 kts 128°
2026-05-04 23:24 29.87200 -95.21270 4625 ft 267 kts 127°
2026-05-04 23:24 29.86108 -95.19501 5109 ft 274 kts 127°
2026-05-04 23:24 29.84996 -95.17713 5657 ft 276 kts 127°
2026-05-04 23:25 29.83869 -95.15904 6190 ft 280 kts 127°
2026-05-04 23:25 29.82726 -95.14070 6704 ft 284 kts 127°
2026-05-04 23:25 29.81381 -95.12415 7040 ft 286 kts 142°
2026-05-04 23:25 29.79770 -95.11044 7500 ft 289 kts 146°
2026-05-04 23:26 29.78133 -95.09688 8015 ft 291 kts 146°
2026-05-04 23:26 29.76490 -95.08288 8465 ft 295 kts 144°
2026-05-04 23:26 29.74831 -95.06930 8928 ft 294 kts 153°
2026-05-04 23:26 29.72944 -95.05978 9271 ft 298 kts 162°
2026-05-04 23:27 29.71128 -95.05268 9683 ft 301 kts 163°
2026-05-04 23:27 29.69064 -95.04474 10170 ft 304 kts 163°
2026-05-04 23:27 29.67015 -95.03658 10300 ft 319 kts 162°
2026-05-04 23:27 29.64878 -95.02773 10418 ft 335 kts 162°
2026-05-04 23:28 29.62636 -95.01830 10593 ft 349 kts 161°
2026-05-04 23:28 29.60327 -95.00853 10957 ft 357 kts 161°
2026-05-04 23:28 29.57976 -94.99858 11450 ft 362 kts 161°
2026-05-04 23:28 29.55596 -94.98852 12058 ft 365 kts 161°
2026-05-04 23:29 29.53232 -94.97853 12695 ft 367 kts 162°
2026-05-04 23:29 29.50819 -94.96834 13329 ft 370 kts 162°
2026-05-04 23:29 29.48382 -94.95806 13932 ft 374 kts 162°
2026-05-04 23:29 29.45950 -94.94780 14441 ft 379 kts 162°
2026-05-04 23:30 29.43444 -94.93724 14912 ft 385 kts 162°
2026-05-04 23:30 29.40907 -94.92655 15415 ft 390 kts 162°
2026-05-04 23:30 29.38342 -94.91575 15925 ft 395 kts 162°
2026-05-04 23:30 29.35743 -94.90480 16430 ft 400 kts 163°
2026-05-04 23:31 29.33107 -94.89370 16916 ft 405 kts 163°
2026-05-04 23:31 29.30477 -94.88264 17377 ft 409 kts 163°
2026-05-04 23:31 29.27796 -94.87138 17856 ft 413 kts 163°
2026-05-04 23:31 29.25131 -94.85838 18272 ft 420 kts 156°
2026-05-04 23:32 29.22537 -94.84187 18639 ft 427 kts 152°
2026-05-04 23:32 29.19997 -94.82393 19045 ft 431 kts 150°
2026-05-04 23:32 29.17454 -94.80556 19483 ft 433 kts 150°
2026-05-04 23:32 29.14915 -94.78737 19859 ft 436 kts 152°
2026-05-04 23:33 29.12314 -94.76906 20224 ft 440 kts 152°
2026-05-04 23:33 29.09682 -94.75084 20605 ft 443 kts 153°
2026-05-04 23:33 29.07024 -94.73266 20977 ft 446 kts 153°
2026-05-04 23:33 29.04376 -94.71467 21349 ft 449 kts 153°
2026-05-04 23:34 29.01675 -94.69640 21705 ft 453 kts 153°
2026-05-04 23:34 28.98947 -94.67798 22059 ft 456 kts 154°
2026-05-04 23:34 28.96199 -94.65943 22428 ft 459 kts 154°
2026-05-04 23:34 28.93437 -94.64080 22787 ft 462 kts 154°
2026-05-04 23:35 28.90655 -94.62204 23144 ft 465 kts 154°
2026-05-04 23:35 28.87895 -94.60343 23483 ft 469 kts 154°
2026-05-04 23:35 28.85063 -94.58434 23742 ft 474 kts 154°
2026-05-04 23:35 28.82202 -94.56508 24029 ft 477 kts 154°
2026-05-04 23:36 28.79331 -94.54574 24353 ft 479 kts 154°
2026-05-04 23:36 28.76487 -94.52660 24670 ft 481 kts 154°
2026-05-04 23:36 28.73590 -94.50710 24973 ft 484 kts 154°
2026-05-04 23:36 28.70671 -94.48749 25259 ft 487 kts 154°
2026-05-04 23:37 28.67745 -94.46784 25561 ft 489 kts 154°
2026-05-04 23:37 28.64800 -94.44808 25876 ft 492 kts 154°
2026-05-04 23:37 28.61835 -94.42819 26186 ft 494 kts 155°
2026-05-04 23:37 28.58860 -94.40825 26450 ft 497 kts 155°
2026-05-04 23:38 28.55910 -94.38850 26710 ft 500 kts 155°
2026-05-04 23:38 28.52905 -94.36838 27014 ft 502 kts 155°
2026-05-04 23:38 28.49878 -94.34813 27314 ft 505 kts 155°
2026-05-04 23:38 28.46838 -94.32781 27616 ft 507 kts 155°
2026-05-04 23:39 28.43786 -94.30742 27909 ft 509 kts 155°
2026-05-04 23:39 28.40718 -94.28693 28204 ft 512 kts 155°
2026-05-04 23:39 28.37640 -94.26640 28489 ft 514 kts 155°
2026-05-04 23:39 28.34581 -94.24600 28769 ft 517 kts 155°
2026-05-04 23:40 28.31471 -94.22529 29047 ft 520 kts 155°
2026-05-04 23:40 28.28339 -94.20443 29292 ft 522 kts 155°
2026-05-04 23:40 28.25199 -94.18352 29602 ft 524 kts 155°
2026-05-04 23:40 28.22038 -94.16249 29878 ft 526 kts 155°
2026-05-04 23:41 28.18857 -94.14138 30131 ft 529 kts 156°
2026-05-04 23:41 28.15577 -94.12330 30326 ft 520 kts 169°
2026-05-04 23:41 28.12148 -94.11405 30450 ft 510 kts 178°
2026-05-04 23:41 28.08634 -94.10730 30613 ft 512 kts 179°
2026-05-04 23:42 28.05098 -94.10076 30839 ft 514 kts 179°
2026-05-04 23:42 28.01570 -94.09396 31092 ft 516 kts 178°
2026-05-04 23:42 27.98031 -94.08672 31323 ft 517 kts 177°
2026-05-04 23:42 27.94480 -94.07911 31547 ft 520 kts 177°
2026-05-04 23:43 27.90915 -94.07125 31722 ft 522 kts 176°
2026-05-04 23:43 27.87383 -94.06336 31915 ft 524 kts 176°
2026-05-04 23:43 27.83794 -94.05531 32099 ft 526 kts 176°
2026-05-04 23:43 27.80184 -94.04722 32276 ft 528 kts 176°